Florence, SC

4:55 AM EDT on September 28, 2016 (GMT -0400)
Florence Regional

Weather History for KFLO - March, 2013

Change the Weather History Date:

Tuesday, March 12, 2013

  Actual Average Record
Temperature  
Mean Temperature 65 °F 55 °F  
Max Temperature 76 °F 66 °F 88 °F (1990)
Min Temperature 54 °F 43 °F 24 °F (1969)
Degree Days  
Heating Degree Days 0 11  
Month to date heating degree days 195 147  
Since 1 July heating degree days 1942 2213  
Cooling Degree Days 0 0  
Month to date cooling degree days 0 0  
Year to date cooling degree days 21 6  
Growing Degree Days 18 (Base 50)    
Moisture  
Dew Point 57 °F    
Average Humidity 62    
Maximum Humidity 93    
Minimum Humidity 31    
Precipitation  
Precipitation 0.31 in 0.11 in 1.19 in (1980)
Month to date precipitation 0.32 1.34  
Year to date precipitation 6.84 7.49  
Sea Level Pressure  
Sea Level Pressure 29.84 in    
Wind  
Wind Speed 10 mph (SW)    
Max Wind Speed 15 mph    
Max Gust Speed 21 mph    
Visibility 9 miles    
Events Rain    
T = Trace of Precipitation, MM = Missing Value Source: NWS Daily Summary

Daily Weather History Graph

Daily Weather History Graph

Search for Another Location

Airport or City:

Trip Planner

Search our weather history database for the weather conditions in past years. The results will help you decide how hot, cold, wet, or windy it might be!

Date:

Astronomy

Mar. 12, 2013 Rise Set
Actual Time 7:33 AM EDT 7:24 PM EDT
Civil Twilight 7:08 AM EDT 7:49 PM EDT
Nautical Twilight 6:39 AM EDT 8:18 PM EDT
Astronomical Twilight 6:09 AM EDT 8:47 PM EDT
Moon 7:42 AM EDT (3/12) 8:32 PM EDT (3/12)
Length of Visible Light 12h 41m
Length of Day
11h 51m
New Moon, 1% of the Moon is Illuminated
Mar 12
New Moon
Mar 19
First Quarter
Mar 27
Full
Apr 3
Last Quarter
Apr 10
New

Hourly Weather History & Observations

Time (EDT) Temp. Dew Point Humidity Pressure Visibility Wind Dir Wind Speed Gust Speed Precip Events Conditions
12:53 AM 62.1 °F 55.9 °F 80% 29.89 in 10.0 mi SSE 10.4 mph - N/A   Scattered Clouds
1:53 AM 62.1 °F 57.0 °F 84% 29.88 in 10.0 mi SSE 6.9 mph - N/A   Partly Cloudy
2:53 AM 62.1 °F 57.0 °F 84% 29.86 in 10.0 mi SSE 9.2 mph - 0.00 in Rain Light Rain
3:53 AM 62.1 °F 59.0 °F 90% 29.84 in 8.0 mi South 6.9 mph - 0.01 in Rain Light Rain
4:53 AM 62.1 °F 59.0 °F 90% 29.83 in 8.0 mi South 9.2 mph - 0.10 in Rain Light Rain
5:28 AM 62.6 °F 60.8 °F 94% 29.83 in 6.0 mi South 10.4 mph - 0.04 in Rain Light Rain
5:53 AM 62.1 °F 60.1 °F 93% 29.83 in 10.0 mi South 11.5 mph - 0.06 in Rain Light Rain
6:21 AM 62.6 °F 60.8 °F 94% 29.84 in 9.0 mi South 9.2 mph - 0.01 in Rain Light Rain
6:27 AM 62.6 °F 60.8 °F 94% 29.84 in 8.0 mi South 8.1 mph - 0.02 in Rain Light Rain
6:53 AM 63.0 °F 61.0 °F 93% 29.84 in 6.0 mi South 13.8 mph - 0.05 in Rain Light Rain
7:07 AM 62.6 °F 60.8 °F 94% 29.84 in 6.0 mi South 9.2 mph - 0.02 in Rain Light Rain
7:20 AM 62.6 °F 60.8 °F 94% 29.84 in 8.0 mi SSW 11.5 mph 17.3 mph 0.03 in Rain Light Rain
7:44 AM 62.6 °F 60.8 °F 94% 29.83 in 8.0 mi SSW 11.5 mph - 0.05 in Rain Light Rain
7:48 AM 64.4 °F 60.8 °F 88% 29.83 in 8.0 mi SSW 10.4 mph - 0.05 in Rain Light Rain
7:53 AM 64.0 °F 61.0 °F 90% 29.82 in 8.0 mi SSW 10.4 mph - 0.06 in Rain Light Rain
8:09 AM 62.6 °F 60.8 °F 94% 29.83 in 10.0 mi SSW 10.4 mph - 0.00 in   Overcast
8:18 AM 62.6 °F 60.8 °F 94% 29.83 in 10.0 mi SW 9.2 mph - 0.00 in   Overcast
8:39 AM 62.6 °F 60.8 °F 94% 29.82 in 10.0 mi SSW 9.2 mph - 0.00 in   Overcast
8:53 AM 64.0 °F 61.0 °F 90% 29.82 in 10.0 mi SSW 9.2 mph - 0.00 in   Mostly Cloudy
9:53 AM 64.9 °F 61.0 °F 87% 29.83 in 10.0 mi SSW 10.4 mph - N/A   Overcast
10:18 AM 64.4 °F 60.8 °F 88% 29.84 in 10.0 mi SW 11.5 mph 21.9 mph 0.00 in   Overcast
10:53 AM 64.9 °F 61.0 °F 87% 29.84 in 3.0 mi SW 13.8 mph 21.9 mph 0.01 in Rain Light Rain
11:05 AM 64.4 °F 60.8 °F 88% 29.85 in 3.0 mi SW 17.3 mph 28.8 mph 0.01 in Rain Light Rain
11:53 AM 64.9 °F 61.0 °F 87% 29.85 in 3.0 mi SW 13.8 mph - 0.01 in   Overcast
12:00 PM 66.2 °F 60.8 °F 83% 29.85 in 10.0 mi SW 12.7 mph 21.9 mph N/A   Overcast
12:24 PM 66.2 °F 60.8 °F 83% 29.85 in 8.0 mi SW 17.3 mph 23.0 mph 0.00 in Rain Light Rain
12:53 PM 66.9 °F 62.1 °F 84% 29.84 in 10.0 mi SW 12.7 mph - 0.01 in Rain Light Rain
1:53 PM 69.1 °F 61.0 °F 75% 29.82 in 10.0 mi SW 10.4 mph - N/A   Overcast
2:53 PM 73.9 °F 57.9 °F 57% 29.78 in 10.0 mi SW 13.8 mph - N/A   Overcast
3:00 PM 73.4 °F 57.2 °F 57% 29.79 in 10.0 mi SW 12.7 mph - N/A   Partly Cloudy
3:53 PM 73.9 °F 55.9 °F 53% 29.77 in 10.0 mi West 13.8 mph 20.7 mph N/A   Scattered Clouds
4:53 PM 75.0 °F 50.0 °F 41% 29.78 in 10.0 mi West 15.0 mph - N/A   Partly Cloudy
5:53 PM 75.0 °F 43.0 °F 32% 29.78 in 10.0 mi WNW 11.5 mph 18.4 mph N/A   Clear
6:53 PM 72.0 °F 39.9 °F 31% 29.81 in 10.0 mi West 9.2 mph - N/A   Clear
7:53 PM 66.9 °F 44.1 °F 44% 29.84 in 10.0 mi West 6.9 mph - N/A   Clear
8:53 PM 64.0 °F 45.0 °F 50% 29.86 in 10.0 mi West 6.9 mph - N/A   Clear
9:53 PM 62.1 °F 46.9 °F 58% 29.89 in 10.0 mi WNW 6.9 mph - N/A   Clear
11:53 PM 57.9 °F 39.9 °F 51% 29.94 in 10.0 mi NNW 8.1 mph - N/A   Clear